Location: Grieser Field
(39.7333°N, 81.7975°W)
Time: 06:28:17
(UTC-04:00)

MOS 1-B - Visible Passes

Search period start: 28 June 2017 00:00
Search period end: 08 July 2017 00:00
Orbit: 905 x 914 km, 99.3° (Epoch: 27 June)

Date Brightness Start Highest point End Pass type
(mag) Time Alt. Az. Time Alt. Az. Time Alt. Az.
28 Jun 6.3 03:50:25 10° NE 03:54:57 23° E 03:59:26 10° SE visible
29 Jun 6.1 03:55:40 10° NE 04:00:25 26° E 04:05:08 10° SSE visible
30 Jun 6.0 04:00:57 10° NE 04:05:54 29° E 04:10:49 10° SSE visible
01 Jul 5.8 04:06:14 10° NE 04:11:22 32° E 04:16:27 10° SSE visible
02 Jul 5.7 04:11:33 10° NNE 04:16:49 35° E 04:22:04 10° SSE visible
03 Jul 5.5 04:16:52 10° NNE 04:22:17 39° E 04:27:40 10° SSE visible
04 Jul 5.3 04:22:14 10° NNE 04:27:44 44° E 04:33:13 10° S visible
05 Jul 5.1 04:27:35 10° NNE 04:33:12 49° E 04:38:46 10° S visible
06 Jul 5.0 04:32:58 10° NNE 04:38:38 54° E 04:44:17 10° S visible
07 Jul 4.8 04:38:21 10° NNE 04:44:06 60° ESE 04:49:48 10° S visible
